Location: Biberach+an+der+Riss
(48.0937°N, 9.7888°E)
Time: 04:32:59
(UTC+02:00)

ISS - Pass Details

Date: 01 October 2020
Orbit: 418 x 420 km, 51.6° (Epoch: 20 October)

Event Time Altitude Azimuth Distance (km) Brightness Sun altitude
Rises 19:29:12 0° 287° (WNW) 2,368 1.9 -5.8°
Reaches altitude 10° 19:31:20 10° 293° (WNW) 1,504 0.4 -6.2°
Maximum altitude 19:34:38 50° 10° (N) 542 -3.2 -6.7°
Drops below altitude 10° 19:37:56 10° 88° (E) 1,502 -1.6 -7.3°
Enters shadow 19:38:00 10° 88° (E) 1,530 -1.6 -7.3°
